Theta_e
318 317 314 315 318 319 320 320 320 316 319 319 318 319 321 321 322 324 325 326 327 328 329 330 330 331 331
316 314 314 315 317 317 319 319 321 319 317 318 318 318 319 319 318 319 319 319 320 321 323 325 326 327 329
313 316 314 313 316 317 317 317 318 314 317 316 317 317 317 317 316 316 315 315 315 316 317 319 321 323 325
313 313 313 313 314 315 313 316 317 316 315 315 316 315 315 316 314 312 312 312 315 315 315 314 314 317 320
311 312 311 308 309 308 311 312 315 315 314 313 315 314 314 313 310 308 309 311 312 313 314 314 313 314 316
311 310 310 307 310 310 309 307 306 311 313 309 308 304 304 306 307 307 308 308 309 310 311 312 312 313 314
311 309 306 307 309 307 308 307 308 307 307 303 302 299 301 303 305 306 306 307 307 308 308 309 310 311 311
299 298 298 300 302 306 307 306 300 300 303 298 298 295 297 298 303 305 306 306 306 307 307 306 306 307 308
296 295 295 296 297 301 301 297 296 296 297 296 295 292 292 292 297 304 304 306 306 306 305 305 304 304 305
291 291 291 291 293 292 297 296 289 288 294 291 289 290 287 290 291 295 298 301 303 303 303 302 302 301 300
289 289 289 288 288 289 290 291 288 287 291 290 287 287 287 287 288 289 291 293 294 295 299 300 301 299 297
286 286 285 285 286 286 287 287 288 287 290 291 286 289 287 286 286 286 287 288 289 289 291 295 296 297 298
284 284 284 284 286 286 286 286 286 285 287 286 287 286 287 286 286 285 285 285 286 287 287 288 289 290 288
280 280 281 282 280 282 283 281 280 280 283 285 285 285 284 283 283 284 284 283 283 283 284 286 288 288 289
277 277 278 278 277 274 273 272 274 272 274 278 281 283 282 278 280 281 278 278 279 281 281 279 280 283 284
277 277 274 273 272 271 272 270 272 270 270 270 271 273 276 284 286 280 278 275 275 278 278 273 275 280 282
273 270 271 272 270 269 269 270 271 270 269 268 266 263 263 267 281 284 273 273 274 275 277 277 276 279 281
Wind_Speed
8 6 5 9 11 9 9 10 9 17 21 19 17 16 14 15 16 17 18 19 16 15 17 17 18 18 20
8 5 8 8 10 12 10 8 10 12 16 19 19 17 16 16 15 14 14 14 14 15 16 18 21 19 19
8 7 6 4 8 9 9 7 6 10 12 14 15 15 14 14 14 13 13 12 12 14 15 16 17 18 18
8 7 6 6 4 4 4 4 9 6 7 7 9 11 12 12 12 12 13 14 15 16 16 17 19 18 17
8 7 6 3 5 3 5 3 5 4 4 3 4 4 3 6 5 9 12 14 15 16 17 18 18 18 17
7 8 7 5 3 5 5 3 3 2 4 2 1 3 1 3 1 0 4 8 11 13 16 18 18 18 18
9 7 5 5 3 4 4 3 3 1 2 3 1 3 3 2 4 3 1 1 2 4 11 17 18 18 17
2 2 1 3 3 2 2 1 2 1 1 2 1 3 3 3 8 6 5 1 2 4 6 9 5 7 15
8 6 3 7 5 2 4 3 2 2 2 3 2 3 3 3 4 10 7 6 8 9 13 15 17 20 15
3 4 6 6 9 3 2 4 3 1 0 3 1 4 2 3 3 4 4 15 17 16 16 15 14 8 8
3 4 5 6 5 6 5 2 3 1 1 3 2 1 3 3 3 4 5 5 6 7 16 17 14 9 6
3 4 4 5 6 6 8 8 7 5 3 1 3 3 3 3 3 1 5 5 4 4 5 9 15 15 12
2 2 2 2 3 3 5 5 10 10 8 6 3 3 3 3 4 2 3 3 3 3 4 5 3 3 4
2 1 2 2 2 3 3 3 4 6 8 11 8 5 4 5 3 4 3 2 2 1 1 2 3 3 2
1 2 2 2 2 2 2 3 4 2 4 5 7 11 9 4 6 4 3 3 3 2 3 2 2 2 2
2 2 2 2 3 3 4 4 4 3 3 3 4 4 5 9 9 3 2 2 2 3 3 2 3 3 2
4 2 2 3 4 3 3 3 4 3 3 3 4 4 4 2 2 12 3 2 2 3 2 1 2 4 3
Wind_Direction
250 228 235 248 261 251 246 245 241 235 236 231 233 231 225 222 219 218 216 212 215 226 241 252 256 257 257
250 230 232 242 250 258 252 245 243 237 224 225 226 227 230 220 216 216 219 222 229 240 249 246 246 249 256
260 251 251 245 259 260 251 248 246 241 226 218 221 226 223 224 224 226 228 223 224 229 239 243 242 248 249
246 245 239 245 228 264 276 227 257 234 227 209 203 222 227 225 225 220 226 230 229 231 237 244 247 243 243
246 243 229 202 234 241 243 272 264 216 208 202 195 167 213 226 245 230 233 234 236 237 236 238 237 240 242
245 239 228 207 201 226 242 232 260 204 201 177 116 122 161 112 169 131 274 261 258 256 250 242 240 239 238
244 229 215 199 202 215 227 244 234 248 124 159 69 109 51 62 52 57 80 55 25 316 270 250 244 238 238
31 68 26 318 235 297 289 231 72 49 61 180 93 66 58 24 36 45 24 34 131 80 54 54 80 144 116
71 70 45 28 355 263 222 156 220 211 1 117 132 96 59 16 356 51 47 57 75 85 86 85 82 81 71
8 13 30 18 23 16 280 185 136 31 191 123 122 130 86 36 0 12 41 56 59 67 71 72 76 84 92
44 25 18 20 13 15 18 87 124 114 162 120 126 123 79 116 42 9 22 27 52 48 53 68 67 77 90
53 31 29 16 9 21 39 55 49 66 32 140 128 146 124 114 138 7 34 32 31 45 55 55 56 60 65
72 59 31 338 2 353 16 43 57 42 27 19 74 116 79 105 130 133 100 29 27 51 41 55 58 50 44
120 36 354 14 38 354 25 14 47 28 24 33 41 47 75 54 69 94 67 110 15 35 86 54 47 52 58
67 70 39 19 27 2 26 21 71 26 1 8 32 62 62 92 82 76 68 52 12 17 42 14 337 18 350
71 66 76 55 50 21 45 59 77 19 26 355 1 38 35 62 52 86 68 80 5 16 30 69 323 325 355
107 88 84 53 83 53 50 63 67 44 18 2 40 79 69 90 33 39 111 18 6 357 353 20 279 292 306